Terminal Aerodrome Forecast
Issued by NWS

Home | Current Version | Previous Version | Text Only | Print | Product List | Glossary Off
Versions: 1 2 3 4 5 6 7 8 9 10 11 12 13 14 15 16 17 18 19 20

000
FTUS43 KFGF 211600 AAB
TAFBJI
TAF AMD
KBJI 211616Z 2116/2212 11007KT P6SM BKN010
      TEMPO 2116/2118 SCT010
     FM211800 13006KT P6SM SCT010 SCT250
     FM220200 09008KT P6SM TSRA BKN050CB
     FM221000 36005KT P6SM BKN025=

USA.gov is the U.S. government's official web portal to all federal, state and local government web resources and services.